#timestamp,LO_Frequency,Hit,StdDev 
1626094815.4,286046999.0,N
1626094835.2,286046998.1,N
1626094855.1,286046998.6,N
1626094856.0,286046998.6,N
1626094875.8,286046999.0,N
1626094895.6,286046997.0,N
1626094915.5,286046998.6,N
1626094935.3,286046998.1,N
1626094955.2,286046999.8,N
1626094975.9,286047002.8,N
1626094995.7,286047000.3,N
1626095015.6,286046998.2,N
1626095035.4,286046999.5,N
1626095055.2,286046998.7,N
1626095075.1,286046998.2,N
1626095076.0,286046998.2,N
1626095095.8,286046998.8,N
1626095115.6,286046996.5,N
1626095135.5,286046997.1,N
1626095155.3,286046997.5,N
1626095175.2,286046995.3,Y
1626095195.9,286046997.3,P
1626095215.7,286046999.2,N
1626095235.6,286046996.6,P
1626095255.4,286046999.6,N
1626095275.3,286046998.9,N
1626095295.1,286046998.8,N
1626095296.0,286046998.8,N
1626095315.8,286046998.9,N
1626095335.7,286047001.2,N
1626095355.5,286046998.2,N
1626095375.3,286046997.2,N
1626095395.2,286046999.4,N
1626095415.0,286046998.1,N
1626095415.9,286046998.1,N
1626095435.8,286046996.6,Y
1626095455.6,286047000.8,P
1626095475.4,286047000.5,N
1626095495.3,286047000.7,N
1626095515.1,286047001.2,N
1626095535.8,286047001.1,N
1626095555.7,286047002.7,Y
1626095575.5,286047000.3,P
1626095595.4,286047000.0,N
1626095615.2,286047000.4,N
1626095635.0,286047001.0,Y
1626095635.9,286047001.0,P
1626095655.8,286046998.1,P
1626095675.6,286046998.3,N
1626095695.5,286047001.1,N
1626095715.3,286046998.3,N
1626095735.1,286046999.6,N
1626095755.9,286046996.5,N
1626095775.7,286046996.8,N
1626095795.5,286046996.7,N
1626095815.4,286046997.6,N
1626095835.2,286046995.6,N
1626095855.0,286046996.7,N
1626095856.0,286046996.7,N
1626095875.8,286046996.7,N
1626095895.6,286046999.2,N
1626095915.5,286046999.1,N
1626095935.3,286046999.1,N
1626095955.1,286046998.8,N
1626095975.9,286046998.8,N
1626095995.7,286046997.3,N
1626096015.6,286046995.2,Y
1626096035.4,286046998.9,P
1626096055.2,286046998.1,P
1626096075.1,286046998.5,P
1626096076.0,286046998.5,Y
1626096095.8,286047001.4,P
1626096115.6,286047001.4,N
1626096135.5,286047002.5,N
1626096155.3,286047001.4,N
1626096175.2,286047002.5,N
1626096195.9,286047000.9,N
1626096215.7,286046999.7,N
1626096235.6,286047002.5,N
1626096255.4,286047002.1,N
1626096275.2,286047002.3,N
1626096295.1,286047000.3,N
1626096296.0,286047000.3,N
1626096315.8,286047000.0,N
1626096335.7,286047002.4,N
1626096355.5,286046999.9,N
1626096375.3,286046999.8,N
1626096395.2,286046999.9,N
1626096415.0,286046998.7,N
1626096415.9,286046998.7,N
1626096435.7,286047000.6,N
1626096455.6,286046998.2,N
1626096475.4,286047000.8,N
1626096495.3,286047000.7,N
1626096515.1,286047002.6,N
1626096516.0,286047002.6,N
1626096535.8,286047002.7,N
1626096555.7,286047001.5,N
1626096575.5,286047002.5,N
1626096595.3,286047001.9,N
1626096615.2,286047002.1,N
1626096635.0,286047002.8,N
1626096635.9,286047002.8,N
1626096655.8,286046999.8,N
1626096675.6,286047002.3,N
1626096695.4,286047000.0,N
1626096715.3,286047000.1,N
1626096735.1,286047002.7,N
1626096755.8,286047000.2,N
1626096775.7,286047002.4,N
1626096795.5,286047002.1,N
1626096815.4,286047002.0,N
1626096835.2,286047004.1,N
1626096855.0,286047003.5,N
1626096855.9,286047003.5,N
1626096875.8,286047003.4,N
1626096895.6,286047003.1,N
1626096915.4,286047003.0,N
1626096935.3,286047002.9,N
1626096955.1,286047004.4,Y
1626096975.9,286047002.7,P
1626096995.7,286047002.0,P
1626097015.5,286047001.9,P
1626097035.4,286047001.5,Y
1626097055.2,286047001.0,P
1626097075.0,286046998.1,P
1626097075.9,286046998.1,N
1626097095.8,286047000.5,N
1626097115.6,286046998.2,N
1626097135.5,286047000.4,N
1626097155.3,286047002.8,N
1626097175.1,286046998.5,N
1626097195.9,286046996.9,N
1626097215.7,286046995.3,N
1626097235.5,286046995.1,N
1626097255.4,286046993.7,N
1626097275.2,286046993.6,N
1626097295.1,286046994.7,N
1626097296.0,286046994.7,N
1626097315.8,286046991.7,N
1626097335.6,286046992.9,N
1626097355.5,286046990.7,N
1626097375.3,286046990.6,N
1626097395.2,286046990.5,N
1626097415.0,286046993.1,N
1626097415.9,286046993.1,N
1626097435.7,286046990.2,N
1626097455.6,286046991.4,N
1626097475.4,286046989.7,N
1626097495.3,286046987.6,Y
1626097515.1,286046994.6,P
1626097516.0,286046994.6,P
1626097535.8,286046992.4,P
1626097555.7,286046992.4,Y
1626097575.5,286046999.2,P
1626097595.3,286047000.2,N
1626097615.2,286047000.3,N
1626097635.0,286046999.8,N
1626097635.9,286046999.8,N
1626097655.8,286047002.6,N
1626097675.6,286047002.1,N
1626097695.4,286047003.4,N
1626097715.3,286047005.7,N
1626097735.1,286047004.6,N
1626097755.9,286047006.3,N
1626097775.7,286047007.9,N
1626097795.6,286047008.8,N
1626097815.4,286047009.0,N
1626097835.2,286047008.8,N
1626097855.1,286047009.0,N
1626097856.0,286047009.0,N
1626097875.8,286047008.9,N
1626097895.7,286047008.8,N
1626097915.5,286047008.7,N
1626097935.3,286047009.0,N
1626097955.2,286047008.7,N
1626097975.0,286047010.7,N
1626097975.9,286047010.7,N
1626097995.7,286047008.4,N
1626098015.6,286047009.2,N
1626098035.4,286047008.8,N
1626098055.3,286047007.7,N
1626098075.1,286047010.1,N
1626098095.9,286047009.8,N
1626098115.7,286047010.6,N
1626098135.5,286047008.1,N
1626098155.4,286047008.1,N
1626098175.2,286047010.3,Y
1626098195.1,286047000.0,P
1626098196.0,286047000.0,N
1626098215.8,286047000.6,N
1626098235.6,286047001.1,N
1626098255.5,286046999.7,N
1626098275.3,286047000.4,N
1626098295.1,286047000.0,N
1626098315.9,286047001.7,N
1626098335.7,286047000.2,N
1626098355.6,286047000.5,N
1626098375.4,286047000.9,N
1626098395.2,286047000.6,N
